Regional Weather Roundup
Issued by NWS Mobile, AL

Home | Current Version | Previous Version | Text Only | Print | Product List | Glossary On
Versions: 1 2 3 4 5 6 7 8 9 10 11 12 13 14 15 16 17 18 19 20 21 22 23 24 25 26 27 28 29 30 31 32 33 34 35 36 37 38 39 40 41 42 43 44 45 46 47 48 49 50
360
ASUS44 KMOB 271613
RWRMOB
REGIONAL WEATHER ROUNDUP
NATIONAL WEATHER SERVICE MOBILE AL
1100 AM CDT SAT AUG 27 2016

NOTE: "FAIR" INDICATES FEW OR NO CLOUDS BELOW 12,000 FEET WITH NO
      SIGNIFICANT WEATHER AND/OR OBSTRUCTIONS TO VISIBILITY.

  * THESE STATIONS ARE PART OF THE UNIVERSITY OF SOUTH ALABAMA
    MESONET AND ARE NOT UNDER NWS OR FAA QUALITY CONTROL.

ALZ061>064-271700-
COASTAL ALABAMA

CITY           SKY/WX    TMP DP  RH WIND       PRES   REMARKS
MOBILE REG APT MOSUNNY   88  73  61 NE12      30.01F HX  95
BROOKLEY FIELD SUNNY     88  75  65 N8        30.01F HX  97
USA CAMPUS*    NOT AVBL
DOG RIVER*     NOT AVBL


CITY           SKY/WX    TMP DP  RH WIND       PRES   REMARKS
MOUNT VERNON*  NOT AVBL
SARALAND*      NOT AVBL
BAY MINETTE*   NOT AVBL
LOXLEY*        NOT AVBL
ROBERTSDALE*   NOT AVBL
FAIRHOPE*      NOT AVBL
ELBERTA*       NOT AVBL
FOLEY*         NOT AVBL
GRAND BAY*     NOT AVBL
DAUPHIN ISLND* NOT AVBL
BON SCOUR NWR* NOT AVBL
GULF SHORES    PTSUNNY   84  78  81 E10       29.99S

$$

ALZ051>060-271700-
INTERIOR SOUTHWEST AND SOUTH CENTRAL ALABAMA

CITY           SKY/WX    TMP DP  RH WIND       PRES   REMARKS
GREENVILLE     SUNNY     88  69  53 E6        30.05F
EVERGREEN      SUNNY     87  70  56 E8        30.04F
CASTLEBERRY*   NOT AVBL
ATMORE*        NOT AVBL
DIXIE*         NOT AVBL
ANDALUSIA/OPP  SUNNY     92  67  43 E12       30.03F HX  95
ANDALUSIA*     NOT AVBL
FLORALA APT    MOSUNNY   86  70  58 VRB7      30.05S
FLORALA*       NOT AVBL

$$

FLZ001>006-271700-
WESTERN FLORIDA PANHANDLE

CITY           SKY/WX    TMP DP  RH WIND       PRES   REMARKS
PENSACOLA      CLOUDY    87  76  69 VRB5      30.00S HX  97
NAS PENSACOLA  PTSUNNY   84  77  79 NE7       29.99S
MILTON         MOSUNNY   88  74  63 E6        30.01S HX  96
WHTNG S FIELD  PTSUNNY   88  74  63 E8        30.01S HX  96


CITY           SKY/WX    TMP DP  RH WIND       PRES   REMARKS
WALNUT HILL*   NOT AVBL
JAY*           NOT AVBL
DUKE FIELD     CLOUDY    86  71  60 E8        30.00S
CRESTVIEW      MOSUNNY   88  70  55 VRB5      30.03S
VALPARAISO     MOSUNNY   87  72  60 NE7       30.00S
DESTIN         PTSUNNY   89  76  65 E9        30.00S HX 100

$$

MSZ076-079-271700-
INTERIOR SOUTHEAST MISSISSIPPI

CITY           SKY/WX    TMP DP  RH WIND       PRES   REMARKS
LEAKESVILLE*   NOT AVBL
AGRICOLA*      NOT AVBL

$$

MARINE OBSERVATIONS

STATION/POSITION TIME  TEMP    WIND        PRES    WAVE
                       AIR SEA DIR/SP/G            HT/PER
                 (UTC) (F)     (DEG/KT/KT) (MB)    (FT/S)
PASCAGOULA       1500   84      50/  9/ 14 1015.3F
PETIT BOIS ISLND 1500   84      60/ 14/ 16 1016.0F
GRAND BAY        1400   82      60/ 12     1017.0
KATRINA CUT      1500   83      70/ 12     1016.3S
CEDAR POINT      1500   81      80/ 10     1015.2F
E DAUPHIN ISLAND 1500   81      60/ 10/ 11 1015.1F
MIDDLE BAY LIGHT 1500   82      80/  9     1015.2F
USCG MOBILE BAY  1500   83 87   50/  6/  7 1016.4F
STATE DOCKS      1500   87 87              1015.8F
MEAHER PARK      1500   85      30/  4     1015.9F
WEEKS BAY        1400   79                   N/A
FORT MORGAN      1500   83      70/  9/ 11 1014.7F
12 S ORANGE BCH  1550   83 86   80/ 14/ 16 1015.1R   3/ 5
PENSACOLA BAY    1500   83 87   70/  2/  4 1016.1F
64 S DAUPHIN ISL 1500   83 86   80/  8/ 10 1014.5R
67 S FORT MORGAN 1530   82     120/  6     1014.6S

$$

SELECTED LOCATIONS ACROSS THE REGION

CITY           SKY/WX    TMP DP  RH WIND       PRES   REMARKS
NEW ORLEANS    CLOUDY    86  78  77 NE8       29.99S HX  98
GULFPORT       SUNNY     89  74  60 NE9       29.98F HX  98
PASCAGOULA AP  SUNNY     89  75  63 E7        29.99F HX  99
PASCAGOULA*    NOT AVBL
HATTIESBURG    SUNNY     89  71  55 NE7       30.03F HX  95
LAUREL           N/A    N/A N/A N/A MISG        N/A
MERIDIAN       MOSUNNY   91  70  49 E7        30.06S HX  96
JACKSON        MOSUNNY   89  70  53 E5        30.06S
MONTGOMERY     SUNNY     90  68  48 NE7       30.06F
TROY           SUNNY     86  70  58 NE10      30.06F
KINSTON*       NOT AVBL
GENEVA*        NOT AVBL
ASHFORD*       NOT AVBL
DOTHAN         MOSUNNY   84  72  67 E8        30.09S
PANAMA CITY    SUNNY     87  73  62 NE8       30.01S

$$





USA.gov is the U.S. government's official web portal to all federal, state and local government web resources and services.